{"data":{"norad_id":23893,"epoch":"2026-05-25T00:15:03.718080Z","epoch_age_seconds":64252,"freshness":"FRESH","line1":"1 23893U 96029A   26145.01045970  .00000578  00000+0  11517-3 0  9992","line2":"2 23893  63.3195 252.7532 0849945  48.8232 318.2999 13.46175900102152","mean_motion":13.461759,"eccentricity":0.0849945,"inclination_deg":63.3195,"raan_deg":252.7532,"arg_perigee_deg":48.8232,"mean_anomaly_deg":318.2999,"bstar":0.00011517,"rev_number":10215,"period_min":106.96967610251,"perigee_km":451.92016154197,"apogee_km":1720.8027932129,"semimajor_km":7464.4984773774,"source":"CELESTRAK","updated_at":"2026-05-25T13:37:54.964587Z"}}